Wetbulb
74.25 74.26 74.07 73.62 73.70 73.82 73.04 72.30 71.85 71.37 71.60 71.67 71.45 71.41 70.90 70.55 70.48 69.88 69.47 70.86 72.31 71.59 71.38 70.46 68.58 69.45 68.66 68.77 67.72 66.73 65.60 62.27 59.22 57.44 57.81 58.09 57.32 57.96 59.87 56.55 59.81 57.39 59.16
74.20 74.13 74.13 74.30 73.75 73.64 73.12 72.48 72.04 71.69 71.81 72.02 71.77 71.70 71.46 71.48 71.12 69.95 69.61 72.16 71.52 71.07 70.35 69.47 67.90 69.16 68.13 65.71 67.19 66.68 66.38 64.69 61.79 56.69 56.36 56.46 56.47 57.46 58.60 55.89 59.03 59.59 57.75
74.57 74.12 74.13 74.10 73.62 73.38 73.23 72.45 72.64 72.47 72.15 72.77 71.77 71.73 71.75 71.88 72.02 71.66 71.25 71.47 72.40 71.72 70.09 69.00 67.63 66.92 66.67 65.35 64.98 66.89 66.53 65.95 61.59 59.25 57.51 58.08 58.36 57.92 57.24 56.24 56.23 56.15 58.24
74.52 74.22 73.77 74.27 74.30 74.04 73.70 72.72 72.73 72.93 72.64 72.70 72.20 71.20 71.34 71.52 71.61 71.08 71.10 71.09 71.08 71.48 70.05 68.88 68.05 66.90 67.04 63.61 63.09 65.86 65.02 63.36 61.19 60.50 58.35 58.22 57.90 57.90 58.07 56.59 56.11 56.46 55.11
74.15 74.00 73.74 74.55 74.75 74.30 73.60 72.58 72.88 72.87 73.17 73.21 71.19 70.20 70.75 71.15 71.84 71.56 71.36 70.96 70.16 70.99 69.15 68.50 67.80 67.69 69.36 65.79 62.85 64.43 64.06 62.54 61.45 60.51 58.14 59.09 57.91 58.11 58.02 58.16 56.73 57.51 54.93
73.70 73.90 74.29 74.11 74.25 73.68 73.41 72.73 72.54 72.31 73.03 72.78 71.37 71.32 70.24 71.75 70.50 70.60 71.74 71.03 70.56 69.77 67.56 67.28 67.49 68.62 66.69 66.73 66.64 67.06 66.50 63.67 60.98 59.67 58.88 59.49 58.63 58.44 58.98 58.77 57.89 56.07 53.68
72.15 73.53 73.93 73.60 73.25 73.14 73.40 72.90 72.40 72.32 71.70 71.63 70.74 69.32 70.04 70.17 68.43 69.18 70.93 70.88 70.19 67.82 67.04 65.41 65.42 65.29 64.73 62.88 64.63 66.24 67.05 66.43 65.97 63.12 61.04 60.81 59.46 61.60 60.39 58.48 58.22 58.10 57.07
72.03 72.25 73.21 73.52 72.92 72.15 72.11 72.27 72.06 72.09 70.96 69.93 69.73 69.03 68.89 69.96 66.91 67.47 69.61 70.24 69.88 67.24 66.54 65.18 63.07 61.62 62.25 61.47 59.96 58.78 60.25 62.79 64.88 64.24 63.86 63.65 63.48 63.93 62.85 62.35 60.93 59.41 58.20
72.26 72.70 73.28 73.49 72.79 71.59 70.79 70.37 70.91 70.74 69.30 69.16 69.19 69.01 68.87 69.56 65.24 65.48 67.77 70.54 68.80 67.46 65.63 65.63 62.97 60.22 61.56 62.97 60.05 60.01 58.39 56.49 60.44 62.01 62.97 63.24 62.84 62.95 63.73 59.59 58.34 56.71 55.29
73.62 73.25 73.47 73.30 72.69 71.72 71.12 70.04 69.45 69.48 69.79 69.71 69.30 69.63 68.28 69.22 63.44 63.94 67.09 69.38 65.89 65.12 63.27 63.61 64.45 61.93 60.58 61.75 60.53 60.28 57.87 56.36 55.76 56.41 56.99 60.19 61.48 61.50 63.28 63.34 59.38 56.08 54.28
73.59 73.81 73.55 73.10 72.67 72.23 70.84 70.06 69.79 69.70 69.54 68.80 68.51 68.96 69.36 68.48 64.92 62.35 62.61 65.89 66.18 62.92 63.84 61.77 61.93 61.26 59.15 59.24 60.09 60.77 60.65 57.98 57.57 55.09 55.27 54.94 56.08 56.63 58.39 58.16 58.13 57.17 54.66
73.84 73.96 73.23 72.69 72.66 72.23 71.20 70.06 69.86 69.75 69.10 68.31 67.67 67.83 69.01 68.85 64.63 61.38 60.79 61.65 63.52 63.16 61.77 61.59 59.79 58.67 57.64 57.21 59.30 60.01 59.62 59.55 56.01 54.16 52.98 52.67 52.87 54.45 55.44 55.56 56.85 58.33 57.42
73.20 73.50 73.35 73.10 71.75 71.95 71.19 70.00 69.37 69.41 69.50 68.37 68.40 67.42 67.99 68.92 67.86 61.53 60.40 60.06 60.58 61.02 60.94 60.49 58.79 55.78 55.55 56.71 57.72 58.28 59.66 58.54 55.80 52.64 52.06 51.47 51.48 53.38 52.35 52.27 52.19 53.24 54.39
73.12 73.08 73.32 73.32 72.12 71.60 71.69 71.48 70.34 69.89 69.19 69.19 68.53 67.92 67.72 69.23 67.92 65.19 62.47 61.36 60.37 60.10 60.47 59.27 59.06 58.62 56.53 56.17 56.19 56.99 56.12 56.83 56.23 54.97 52.51 52.51 52.20 52.38 51.46 51.38 50.59 50.14 49.80
73.23 73.02 72.48 72.71 71.18 70.99 71.57 71.62 70.71 70.63 69.56 69.59 69.16 68.66 67.85 68.31 68.54 64.22 62.94 63.32 62.47 60.34 58.38 57.10 56.84 55.31 53.37 51.62 50.12 51.78 54.11 53.84 54.81 53.76 52.86 52.87 53.46 54.84 54.58 54.45 53.04 51.85 51.77
69.22 70.22 68.60 68.13 67.23 70.06 70.43 69.01 61.10 61.70 58.06 58.29 60.70 65.51 69.13 62.84 58.56 55.12 53.12 53.23 53.74 53.18 58.95 57.12 56.22 55.42 55.39 54.27 51.94 51.04 50.29 54.72 53.12 53.49 53.26 53.38 53.68 54.01 55.36 56.05 56.23 54.70 54.76
67.25 68.51 65.47 64.46 67.36 68.04 64.94 63.61 62.63 61.67 59.29 55.12 53.30 53.28 55.64 61.80 53.67 51.49 51.67 51.85 52.34 54.46 60.97 60.03 58.78 56.49 56.19 55.40 54.99 54.16 52.62 51.25 52.14 53.52 54.54 54.13 53.93 53.54 53.05 54.39 56.66 57.65 56.95
67.61 62.54 67.58 68.51 66.52 65.03 63.08 62.69 63.80 63.99 63.58 64.25 58.28 55.66 54.73 51.85 49.86 48.77 50.22 54.19 56.83 56.59 62.04 62.59 60.08 59.67 58.08 56.77 56.01 55.68 55.49 55.94 54.68 53.35 53.63 54.33 54.37 54.60 54.33 54.06 54.87 55.75 57.20
65.27 65.90 66.80 68.22 69.01 63.38 62.68 62.21 62.53 64.14 64.48 63.80 64.30 58.48 54.51 48.23 47.86 50.04 50.04 64.31 62.79 60.64 62.30 62.89 61.93 60.82 60.55 60.11 59.22 58.50 58.67 58.86 58.61 58.12 57.34 56.81 56.12 55.36 55.21 54.96 54.57 52.88 54.60
61.29 62.69 64.33 66.30 66.40 66.47 63.94 62.66 63.67 64.12 63.81 63.47 63.99 63.80 62.64 55.02 57.57 58.60 55.84 61.67 64.78 64.22 63.23 62.89 63.05 62.07 61.36 61.41 61.64 61.15 60.71 59.80 59.80 59.55 59.24 58.99 58.65 57.69 56.86 56.65 56.11 55.19 54.72
59.68 61.11 63.17 65.03 65.28 67.11 65.84 65.26 64.25 63.35 63.50 63.78 63.60 63.54 56.38 61.84 62.67 62.78 60.42 61.31 64.00 66.02 65.55 64.56 63.98 63.11 62.71 61.95 61.47 61.46 61.79 62.24 61.59 60.77 60.45 60.08 59.62 58.42 58.34 58.14 57.47 57.24 57.25
59.01 60.42 60.94 63.60 64.62 64.26 65.73 66.84 66.03 65.14 64.43 64.39 64.69 62.36 50.58 62.43 64.23 64.87 65.62 63.68 63.92 65.89 68.20 66.91 65.08 64.94 64.66 63.93 63.66 63.03 62.32 62.23 62.63 62.61 61.63 60.93 60.09 59.58 59.35 58.22 57.96 57.62 57.55
56.66 57.63 58.69 60.09 62.63 61.74 62.52 63.72 63.40 64.35 65.05 65.73 65.22 63.17 58.96 61.47 62.65 62.85 63.27 64.20 66.24 65.40 66.64 69.02 68.36 66.76 66.31 66.15 66.23 65.31 64.68 64.80 64.89 64.29 62.70 62.27 61.29 60.54 59.63 58.77 58.55 58.11 57.89
57.12 57.01 56.79 56.76 58.79 61.69 62.76 62.47 62.77 57.85 61.35 62.94 62.77 62.74 62.98 63.65 65.39 66.19 66.73 67.56 68.06 68.14 67.52 67.85 69.04 69.25 68.79 67.83 67.49 67.59 67.91 68.09 67.76 66.88 64.83 63.53 62.42 60.03 61.29 60.71 59.85 58.94 59.10
55.91 56.00 55.96 55.28 55.49 58.60 61.72 61.73 62.60 63.35 63.54 63.47 63.57 63.99 64.39 64.82 65.10 65.53 65.71 65.66 65.82 66.89 68.14 69.20 69.19 69.26 69.89 69.73 70.03 69.69 63.54 53.36 64.02 61.84 67.51 65.54 64.03 62.61 62.34 61.96 61.31 60.97 60.54
56.22 56.47 56.29 55.66 55.22 55.95 59.85 60.99 61.04 60.93 60.89 61.31 61.80 62.18 62.53 63.41 63.96 64.89 65.13 64.98 64.95 65.64 65.58 65.62 66.80 69.06 69.64 69.73 69.92 63.32 51.13 44.06 53.26 47.28 66.67 67.60 65.49 64.47 62.87 61.92 61.72 61.65 61.14
MSLP
1010.93 1011.44 1011.90 1012.30 1012.82 1013.25 1013.62 1013.98 1014.37 1014.73 1015.01 1015.28 1015.42 1015.65 1015.85 1016.06 1016.23 1016.73 1016.92 1017.15 1017.25 1017.20 1017.27 1017.54 1017.78 1017.66 1017.87 1017.91 1018.17 1018.65 1019.38 1020.00 1021.05 1022.19 1022.56 1023.19 1024.00 1024.25 1024.28 1024.82 1024.85 1025.07 1025.04
1010.02 1010.63 1011.17 1011.70 1012.23 1012.75 1013.05 1013.38 1013.83 1014.29 1014.53 1014.75 1015.00 1015.21 1015.41 1015.67 1015.93 1016.31 1016.65 1016.77 1016.93 1017.05 1017.03 1017.22 1017.65 1017.72 1017.64 1017.55 1017.87 1018.25 1018.88 1019.53 1020.32 1021.53 1022.48 1023.13 1023.58 1023.85 1024.09 1024.49 1024.51 1024.63 1024.93
1009.45 1010.03 1010.56 1011.11 1011.59 1011.99 1012.32 1012.64 1013.15 1013.56 1013.94 1014.19 1014.48 1014.77 1014.97 1015.18 1015.52 1015.79 1016.07 1016.33 1016.47 1016.55 1016.74 1016.89 1017.17 1017.44 1017.67 1017.65 1017.91 1018.22 1018.65 1019.23 1019.88 1020.79 1022.00 1022.65 1023.25 1023.62 1024.16 1024.39 1024.57 1024.51 1024.77
1008.71 1009.22 1009.77 1010.30 1010.76 1011.11 1011.49 1012.03 1012.36 1012.88 1013.24 1013.66 1013.98 1014.25 1014.43 1014.67 1015.01 1015.27 1015.63 1015.90 1016.03 1016.24 1016.38 1016.69 1016.97 1017.25 1017.48 1017.68 1017.79 1018.03 1018.37 1019.00 1019.62 1020.48 1021.27 1022.39 1022.93 1023.41 1023.72 1024.18 1024.48 1024.44 1024.57
1008.00 1008.62 1008.87 1009.34 1009.93 1010.39 1010.97 1011.46 1011.65 1012.20 1012.58 1012.96 1013.45 1013.74 1013.96 1014.27 1014.52 1014.82 1015.17 1015.56 1015.75 1015.92 1016.16 1016.44 1016.79 1017.04 1017.12 1017.32 1017.72 1018.01 1018.27 1018.78 1019.53 1020.22 1021.03 1021.77 1022.44 1023.06 1023.29 1023.52 1023.87 1023.92 1024.14
1007.23 1007.61 1008.18 1008.85 1009.14 1009.65 1010.17 1010.60 1010.92 1011.42 1011.83 1012.43 1012.82 1013.12 1013.54 1013.73 1013.85 1014.12 1014.44 1014.93 1015.32 1015.53 1015.91 1016.28 1016.79 1016.95 1016.93 1017.00 1017.36 1017.57 1017.60 1018.18 1019.06 1019.67 1020.25 1020.88 1021.41 1021.88 1022.51 1022.93 1023.45 1023.93 1024.23
1006.49 1006.90 1007.50 1008.00 1008.41 1009.00 1009.34 1009.86 1010.21 1010.63 1011.32 1011.57 1012.20 1012.72 1012.94 1013.10 1013.26 1013.64 1014.09 1014.43 1014.77 1015.04 1015.45 1015.88 1016.49 1016.74 1016.89 1017.14 1017.30 1017.48 1017.51 1017.62 1017.71 1018.36 1019.25 1019.92 1020.48 1020.62 1021.25 1022.17 1022.61 1022.76 1022.84
1006.01 1006.37 1006.95 1007.44 1007.92 1008.51 1009.04 1009.39 1009.67 1010.10 1010.55 1010.95 1011.49 1012.05 1012.27 1012.45 1012.76 1013.22 1013.69 1013.92 1014.39 1014.60 1015.00 1015.38 1016.04 1016.47 1016.82 1017.18 1017.36 1017.63 1017.67 1017.54 1017.79 1018.01 1018.26 1018.71 1018.93 1019.36 1019.89 1020.34 1021.32 1022.17 1022.38
1005.66 1005.96 1006.44 1006.81 1007.41 1007.98 1008.44 1008.91 1009.32 1009.72 1010.19 1010.79 1010.89 1011.37 1011.72 1012.00 1012.25 1012.72 1013.26 1013.76 1014.16 1014.31 1014.64 1015.04 1015.67 1016.20 1016.61 1017.01 1017.35 1017.85 1017.96 1017.85 1017.76 1017.66 1017.80 1018.04 1018.37 1018.76 1019.18 1020.32 1021.33 1022.13 1022.46
1005.43 1005.60 1005.98 1006.39 1006.82 1007.37 1007.87 1008.54 1008.93 1009.44 1009.64 1010.20 1010.47 1010.76 1011.04 1011.53 1011.96 1012.43 1013.18 1013.54 1014.07 1014.32 1014.55 1015.01 1015.39 1015.85 1016.21 1016.67 1017.00 1017.65 1017.92 1017.96 1017.81 1017.99 1018.11 1018.21 1018.43 1018.65 1018.77 1018.90 1019.97 1021.08 1021.64
1005.08 1005.47 1005.83 1006.10 1006.43 1006.87 1007.47 1008.14 1008.57 1009.02 1009.50 1009.82 1010.16 1010.41 1010.65 1011.05 1011.75 1012.31 1012.83 1013.35 1013.77 1014.37 1014.67 1015.03 1015.26 1015.53 1015.97 1016.16 1016.51 1017.12 1017.24 1017.55 1017.98 1018.04 1018.30 1018.53 1018.92 1019.13 1019.21 1019.30 1019.54 1019.90 1020.53
1005.38 1005.60 1005.94 1006.17 1006.36 1006.67 1007.28 1007.92 1008.44 1008.92 1009.25 1009.54 1009.96 1010.09 1010.28 1010.64 1010.87 1011.65 1012.38 1012.83 1013.41 1013.84 1014.31 1014.62 1014.90 1015.25 1015.53 1016.11 1016.43 1016.79 1017.05 1017.35 1017.86 1018.35 1018.72 1018.96 1019.17 1019.35 1019.31 1019.36 1019.38 1019.46 1019.64
1005.83 1005.96 1006.02 1006.23 1006.70 1006.78 1007.03 1007.82 1008.37 1008.70 1009.01 1009.35 1009.80 1010.22 1010.23 1010.45 1010.83 1011.10 1011.70 1012.39 1012.93 1013.49 1013.65 1014.13 1014.52 1014.71 1015.36 1015.85 1016.27 1016.60 1016.97 1017.26 1017.64 1018.30 1018.46 1018.57 1018.44 1018.63 1019.03 1019.40 1019.51 1019.66 1019.80
1005.77 1005.86 1005.80 1005.99 1006.35 1006.77 1007.06 1007.59 1008.08 1008.41 1008.66 1009.06 1009.39 1009.60 1010.12 1010.54 1010.66 1010.88 1011.44 1012.17 1012.66 1013.06 1013.54 1013.93 1014.18 1014.74 1015.30 1015.55 1016.06 1016.33 1016.71 1016.85 1017.08 1017.56 1017.83 1017.78 1018.07 1018.39 1018.74 1018.97 1019.28 1019.46 1019.82
1006.30 1005.62 1005.87 1006.32 1006.53 1006.70 1006.81 1006.97 1007.58 1007.94 1008.16 1008.55 1008.84 1009.43 1009.70 1009.90 1009.72 1010.04 1010.41 1011.10 1011.64 1012.24 1013.17 1013.74 1014.46 1014.76 1015.20 1015.67 1015.96 1016.17 1016.51 1016.70 1016.93 1017.23 1017.60 1017.74 1017.86 1018.00 1018.16 1018.40 1018.75 1019.12 1019.37
1006.64 1006.55 1007.03 1007.48 1007.78 1008.31 1007.67 1007.11 1007.85 1008.70 1008.79 1008.37 1008.72 1008.91 1008.92 1009.17 1009.45 1009.94 1010.44 1010.42 1010.90 1011.63 1012.56 1013.11 1013.54 1013.90 1014.17 1014.72 1015.21 1015.67 1016.05 1016.35 1016.55 1016.71 1017.17 1017.27 1017.52 1017.72 1017.79 1017.98 1018.17 1018.60 1018.74
1007.04 1007.13 1007.33 1007.31 1006.85 1006.59 1007.65 1010.14 1009.59 1008.48 1008.80 1008.60 1008.97 1009.29 1008.92 1008.52 1008.92 1009.08 1009.43 1010.10 1010.86 1011.31 1011.46 1011.70 1012.21 1012.78 1013.03 1013.37 1013.77 1014.36 1014.89 1015.25 1015.68 1016.04 1016.29 1016.62 1016.90 1017.18 1017.43 1017.49 1017.53 1017.63 1017.68
1007.45 1007.02 1006.92 1006.81 1006.72 1005.74 1007.69 1007.70 1008.39 1008.17 1008.29 1008.56 1007.92 1008.41 1008.53 1008.60 1009.05 1009.24 1009.15 1010.18 1011.35 1011.25 1010.75 1010.69 1010.74 1010.96 1011.27 1011.77 1012.39 1012.88 1013.44 1014.00 1014.55 1014.88 1015.11 1015.35 1015.80 1016.12 1016.27 1016.28 1016.39 1016.49 1016.51
1007.48 1007.20 1006.85 1006.58 1006.49 1007.13 1006.79 1006.06 1006.96 1006.85 1007.15 1007.61 1006.74 1006.57 1007.26 1007.50 1007.78 1008.43 1009.08 1009.44 1009.49 1009.77 1009.74 1009.73 1009.88 1009.98 1010.00 1010.16 1010.53 1011.16 1011.70 1012.30 1012.88 1013.48 1013.74 1014.03 1014.34 1014.77 1014.83 1014.90 1014.98 1015.05 1015.26
1006.92 1006.91 1006.64 1006.47 1006.20 1006.45 1006.99 1007.25 1006.75 1006.38 1005.12 1006.20 1005.68 1005.29 1005.49 1006.75 1007.06 1007.60 1007.61 1007.93 1008.05 1008.04 1008.09 1008.25 1008.38 1008.56 1008.83 1009.12 1009.68 1010.07 1010.49 1011.00 1011.42 1011.77 1012.08 1012.32 1012.58 1012.87 1013.15 1013.32 1013.46 1013.78 1013.97
1006.18 1006.21 1006.26 1006.18 1006.02 1006.15 1006.28 1006.35 1006.41 1005.70 1005.33 1005.40 1004.83 1004.74 1005.20 1005.21 1005.14 1005.35 1005.90 1005.81 1005.66 1005.75 1006.16 1006.88 1007.34 1007.65 1007.98 1008.09 1008.04 1008.52 1009.06 1009.34 1009.68 1010.03 1010.38 1010.63 1011.05 1011.43 1011.56 1011.85 1012.15 1012.39 1012.57
1005.90 1005.53 1005.24 1005.49 1005.56 1005.33 1005.23 1005.17 1004.95 1004.89 1005.24 1005.17 1004.80 1004.52 1004.50 1004.34 1005.01 1004.48 1004.37 1004.63 1004.73 1004.30 1004.43 1004.70 1005.09 1005.49 1005.76 1006.50 1007.15 1007.14 1007.18 1007.55 1007.93 1008.32 1008.67 1009.05 1009.30 1009.52 1009.88 1010.25 1010.51 1010.82 1011.07
1005.31 1005.11 1004.78 1004.34 1004.20 1004.20 1004.20 1004.24 1004.40 1004.38 1004.08 1003.85 1004.20 1003.97 1004.28 1004.03 1003.99 1003.92 1003.25 1003.06 1003.19 1003.07 1003.06 1003.63 1003.36 1003.44 1003.84 1003.91 1004.56 1005.34 1005.83 1006.07 1005.82 1006.08 1006.66 1007.16 1007.62 1008.01 1008.36 1008.65 1008.94 1009.27 1009.45
1004.72 1004.45 1004.38 1004.23 1004.00 1003.85 1003.78 1003.79 1003.60 1003.44 1003.37 1003.10 1003.06 1003.11 1002.99 1002.71 1002.64 1002.72 1002.08 1001.60 1001.83 1001.53 1002.10 1002.22 1001.75 1001.12 1002.22 1002.57 1002.70 1002.89 1003.26 1003.58 1004.25 1004.81 1005.08 1005.42 1005.78 1006.32 1006.80 1007.05 1007.30 1007.56 1007.83
1004.26 1004.07 1003.94 1003.83 1003.69 1003.41 1003.10 1002.93 1002.92 1002.78 1002.59 1002.36 1002.22 1002.10 1001.96 1001.99 1001.95 1001.58 1001.26 1001.17 1001.31 1001.29 1000.89 1001.10 1000.83 999.64 1000.14 1000.44 1000.64 1001.24 1001.12 1001.93 1002.79 1003.04 1003.88 1004.26 1004.45 1004.47 1004.78 1005.41 1005.79 1006.05 1006.52
1003.84 1003.49 1003.27 1003.07 1002.95 1002.72 1002.48 1002.28 1001.94 1001.77 1001.80 1001.79 1001.65 1001.46 1001.37 1001.13 1000.82 1000.74 1000.55 1000.34 1000.33 1000.25 1000.18 1000.39 1000.51 999.88 999.21 999.10 999.35 1000.08 1000.08 1000.68 1001.57 1001.87 1002.37 1002.97 1003.29 1003.52 1003.77 1004.16 1004.55 1004.96 1005.16
Wind_Speed
14 13 12 11 11 10 9 7 8 6 7 7 7 6 7 7 7 6 6 6 6 5 4 6 6 4 4 7 7 7 5 4 5 1 3 4 4 6 6 5 6 5 4
14 13 13 11 11 11 10 8 7 9 7 8 7 7 7 7 6 7 7 6 6 5 6 5 6 4 3 5 5 10 7 3 5 6 2 4 4 6 6 8 6 6 4
14 14 13 12 12 12 12 9 8 9 9 8 8 8 8 8 7 7 7 6 6 6 6 6 5 5 4 3 4 6 5 4 4 6 4 3 2 4 3 3 4 3 5
15 15 14 14 14 13 12 10 11 10 10 9 8 9 8 8 7 7 7 6 6 6 6 6 6 6 7 6 4 6 6 7 5 7 4 6 2 2 3 4 3 3 4
15 15 15 15 14 11 10 9 10 10 10 10 7 8 7 8 7 8 7 7 6 6 6 5 5 7 8 7 5 6 7 6 6 7 4 4 4 4 8 4 4 3 4
16 17 15 13 14 12 12 11 11 11 11 10 10 10 9 8 11 13 11 8 7 7 6 5 5 7 7 7 7 9 11 10 7 5 4 9 6 6 5 5 4 3 3
14 14 14 13 13 13 13 11 11 13 10 11 9 8 9 9 13 13 11 5 8 7 7 6 5 4 6 5 5 7 12 13 16 11 11 9 6 10 8 5 5 4 5
11 11 12 13 13 11 11 11 9 8 11 7 9 9 8 9 14 13 13 7 6 7 8 8 7 7 6 7 6 4 4 5 7 7 10 11 12 12 13 11 9 5 2
11 11 11 13 12 11 11 10 7 7 5 5 5 7 8 7 15 15 12 8 8 8 7 8 8 7 9 10 7 7 4 3 4 3 7 10 12 14 11 6 4 4 3
8 9 9 11 13 13 11 10 5 4 6 5 6 7 10 9 13 14 13 6 6 5 5 6 12 9 10 14 8 7 7 6 5 3 3 5 5 9 15 12 8 5 3
5 6 7 10 11 9 8 5 6 6 5 5 6 7 9 9 8 12 13 5 6 4 6 4 5 11 12 13 11 8 9 7 6 5 3 2 1 3 3 3 6 5 5
5 6 6 6 6 6 9 5 6 6 6 5 5 5 5 7 11 14 15 11 7 7 7 5 5 12 11 10 9 8 9 8 5 4 3 3 3 4 5 5 6 6 3
4 6 6 6 6 7 9 7 5 6 6 5 5 5 5 6 7 14 16 14 9 5 4 7 10 10 9 8 9 10 7 5 5 4 5 5 5 5 2 1 3 3 3
6 6 6 8 7 6 5 6 6 7 6 5 6 7 5 6 7 6 7 9 10 5 7 4 6 8 8 6 5 5 4 5 6 5 4 4 2 3 4 4 4 3 2
10 6 5 5 6 6 7 8 7 6 7 7 6 5 6 9 10 9 11 9 10 9 7 3 3 3 3 3 3 3 3 4 5 3 4 4 4 3 4 4 3 3 5
9 8 8 9 9 8 7 2 4 8 7 9 8 8 6 11 10 14 13 12 13 17 5 4 4 5 7 7 6 6 5 7 4 4 4 4 5 4 5 3 3 5 7
5 4 1 2 2 13 10 15 8 3 4 3 8 12 10 12 14 15 17 15 10 15 7 9 9 8 9 8 8 8 8 7 6 6 7 6 6 5 5 5 5 7 8
5 6 3 2 4 8 9 2 8 1 1 2 2 7 9 10 7 10 9 13 5 7 8 10 12 11 11 10 9 8 7 6 8 8 8 8 7 8 8 8 8 9 8
5 4 1 3 0 8 8 12 14 8 5 8 5 4 9 11 7 8 17 9 9 11 11 11 10 11 11 11 11 10 11 10 10 9 9 9 9 9 11 10 10 12 10
6 8 5 3 1 4 7 9 8 13 13 11 9 12 6 6 5 6 8 11 9 10 11 12 11 11 11 10 10 10 9 10 11 11 11 10 10 11 11 11 10 10 9
5 6 5 4 4 5 7 8 9 8 6 8 9 5 9 7 7 8 10 12 13 12 12 12 10 10 9 11 11 10 10 11 11 11 11 11 10 11 11 10 10 10 10
5 5 5 5 5 5 7 7 8 8 10 11 10 6 11 7 8 5 7 9 10 11 9 11 11 11 11 11 10 10 12 13 12 11 12 12 12 13 11 11 11 11 11
5 6 5 5 5 6 5 6 7 9 11 11 9 7 7 8 9 10 11 11 11 11 11 12 12 12 12 13 13 13 14 14 14 12 12 13 12 12 12 13 13 12 11
5 5 5 5 5 5 6 7 9 10 10 9 8 8 8 8 9 10 9 7 8 11 12 14 16 18 15 15 14 15 15 14 12 13 16 13 13 13 12 13 13 15 13
5 5 4 4 5 5 6 7 8 9 8 9 8 9 8 8 9 11 11 10 10 10 10 11 12 16 20 20 18 18 17 18 17 14 11 15 16 17 14 13 12 11 12
5 5 5 5 5 5 5 6 7 7 8 7 8 9 9 10 10 10 10 10 10 11 13 10 9 12 14 14 17 19 17 16 15 17 13 11 12 11 10 13 13 10 12
Wind_Direction
187 190 190 194 195 192 197 191 196 200 195 201 201 199 207 205 195 194 215 221 233 229 235 203 188 202 170 190 180 171 159 156 127 97 117 143 156 167 164 161 177 173 181
191 186 193 191 191 197 201 200 181 194 199 197 198 201 199 203 195 192 208 208 222 216 225 177 169 191 146 151 167 185 173 165 132 144 117 145 170 185 170 172 177 187 189
188 190 193 196 195 202 208 197 187 188 195 198 194 201 207 202 196 195 196 209 208 208 203 201 187 157 151 147 164 166 163 154 131 148 144 131 131 163 141 175 196 176 195
191 191 195 197 200 201 206 197 191 193 193 196 197 203 204 201 198 207 189 210 208 206 189 196 183 187 173 158 166 169 157 149 139 149 129 155 145 176 160 170 183 197 195
192 198 201 199 200 198 196 196 197 195 200 196 189 202 205 199 202 198 186 199 201 196 191 192 190 188 189 172 158 178 147 139 149 153 119 130 155 153 198 179 193 164 227
195 203 202 193 195 190 193 199 188 203 199 182 193 197 202 213 201 187 180 185 195 186 186 189 183 164 149 160 168 178 171 156 156 150 154 179 185 189 181 181 150 153 224
201 200 196 191 190 186 198 190 200 202 193 187 196 197 204 207 186 187 175 177 193 178 178 164 174 178 169 154 119 177 192 179 175 164 172 185 171 193 178 174 189 178 204
195 194 186 189 190 183 186 192 202 191 182 196 203 197 194 198 186 182 191 190 214 181 173 175 177 181 189 171 162 155 144 161 173 178 182 189 196 191 189 199 198 186 348
194 191 184 188 180 176 181 184 192 172 165 198 191 186 188 201 188 190 189 197 206 193 177 176 180 186 201 179 169 174 170 139 70 169 183 191 196 182 180 124 162 143 226
196 196 177 182 183 182 179 178 160 179 192 184 195 193 193 193 185 182 182 188 204 181 185 180 192 189 197 188 176 173 180 202 165 126 101 77 168 182 171 191 164 167 158
174 162 168 180 184 178 170 156 156 171 190 184 185 189 192 180 166 184 185 179 195 176 195 190 208 198 201 189 182 183 197 155 188 164 154 133 160 192 189 190 177 155 165
176 168 178 171 176 163 167 164 164 169 181 184 188 189 182 176 171 184 186 198 179 182 194 192 193 192 194 198 185 191 179 156 153 166 165 200 203 225 230 214 210 206 201
192 196 187 177 178 188 168 171 160 172 181 183 183 208 198 186 189 178 189 193 183 181 193 187 182 188 198 201 206 196 184 179 165 165 195 209 199 216 230 227 251 265 266
216 222 204 185 180 179 177 171 177 188 186 190 198 201 200 203 204 185 186 193 192 169 158 183 199 194 188 184 185 213 194 183 179 191 203 214 196 172 205 189 199 195 202
305 238 229 225 216 201 196 183 196 204 193 194 206 207 191 213 220 198 179 185 191 196 141 111 144 152 167 199 226 226 211 196 186 182 196 204 214 208 220 187 197 182 206
3 1 21 29 18 327 265 228 341 360 291 216 201 205 216 229 174 187 206 199 167 151 156 163 182 191 194 199 201 217 202 219 207 184 213 211 218 212 218 206 199 205 230
9 336 55 237 331 81 48 24 332 295 224 170 267 293 263 229 202 200 201 207 183 151 197 195 198 196 202 199 200 202 206 201 187 200 209 215 217 230 206 219 217 220 232
310 326 11 245 168 92 103 325 264 97 46 305 91 205 241 245 264 275 234 134 142 245 209 213 211 205 200 198 200 201 198 180 195 209 216 218 214 219 226 227 224 225 226
298 291 265 278 271 154 163 178 224 225 221 240 216 214 213 223 209 165 165 214 195 202 212 220 221 218 210 205 204 202 199 198 200 203 210 210 209 213 231 232 229 224 220
312 270 248 211 216 179 180 216 216 225 202 220 213 224 155 149 183 187 185 196 203 212 205 214 211 212 211 210 208 207 203 202 204 206 211 208 208 209 221 223 220 221 216
280 291 248 222 212 188 193 210 225 249 235 241 240 286 223 205 206 198 200 204 205 201 199 206 214 214 217 214 203 202 204 212 213 212 214 211 206 214 218 221 220 218 223
284 273 273 223 220 213 210 208 214 222 233 234 243 241 206 210 233 221 206 208 220 221 219 205 200 201 196 198 217 222 214 215 214 211 214 213 209 214 214 214 216 217 219
263 268 270 273 230 228 224 213 213 229 242 240 230 227 197 214 223 232 233 233 230 215 211 217 208 202 205 200 198 207 215 223 220 208 207 210 213 214 213 217 217 219 217
244 258 267 268 258 232 225 222 227 227 235 244 241 232 233 232 227 225 230 222 220 206 211 217 216 194 204 205 206 208 215 217 218 219 212 213 213 211 216 217 216 220 223
271 265 261 265 267 259 252 237 222 223 227 230 241 246 242 238 239 242 240 233 233 239 227 227 229 209 208 206 211 212 211 208 218 216 217 221 222 215 212 218 217 215 211
263 265 261 261 260 258 250 252 246 225 226 223 225 239 242 243 243 247 245 238 230 226 223 231 249 239 212 212 222 228 227 209 208 216 213 211 217 220 209 216 218 212 212